User: anonymous   Login
Location: Unspecified
(0.0000°N, 0.0000°E)
Time: 22:53:18
(UTC+00:00)
Language:

SGSAT - Orbit

View from above orbital plane
View from above orbital plane
View from above satellite
View from above satellite

Ground track
Ground track

The orbit data is extracted from the following two-line orbital elements,

1 42703U 98067LL  18126.44191986  .17722778  12425-4  13973-2 0  9990
2 42703  51.6180 185.5549 0005134 302.2194  57.7887 16.39284937 55666
Epoch (UTC): 06 May 2018 10:36:21
Eccentricity: 0.0005134
inclination: 51.6180°
perigee height: 164 km
apogee height: 171 km
right ascension of ascending node: 185.5549°
argument of perigee: 302.2194°
revolutions per day: 16.39284937
mean anomaly at epoch: 57.7887°
orbit number at epoch: 5566

The dashed part of the orbit path shows where the satellite is in the earth's shadow,  

DLR